Location: Unspecified
(35.7250°N, 0.0000°E)
Time: 13:30:01
(UTC+00:00)

NANOSAT C BR1 - Visible Passes

Search period start: 23 July 2019 00:00
Search period end: 02 August 2019 00:00
Orbit: 590 x 606 km, 97.9° (Epoch: 22 July)

Date Brightness Start Highest point End Pass type
(mag) Time Alt. Az. Time Alt. Az. Time Alt. Az.
23 Jul ? 01:10:08 10° N 01:11:58 23° NNW 01:11:58 23° NNW visible
24 Jul ? 01:20:55 10° N 01:22:36 20° NNW 01:22:36 20° NNW visible
24 Jul ? 23:56:05 10° NE 23:56:32 12° NE 23:56:32 12° NE visible
25 Jul ? 01:31:46 10° NNW 01:33:14 17° NNW 01:33:14 17° NNW visible
26 Jul ? 00:06:23 10° NNE 00:07:10 14° NE 00:07:10 14° NE visible
26 Jul ? 01:42:46 10° NNW 01:43:52 14° NW 01:43:52 14° NW visible
27 Jul ? 00:16:46 10° NNE 00:17:48 17° NNE 00:17:48 17° NNE visible
27 Jul ? 01:53:57 10° NW 01:54:31 12° NW 01:54:31 12° NW visible
28 Jul ? 00:27:13 10° NNE 00:28:26 18° NNE 00:28:26 18° NNE visible
29 Jul ? 00:37:45 10° NNE 00:39:04 20° NNE 00:39:04 20° NNE visible
30 Jul ? 00:48:20 10° N 00:49:42 20° N 00:49:42 20° N visible
31 Jul ? 00:58:58 10° N 01:00:19 20° N 01:00:19 20° N visible
01 Aug ? 01:09:40 10° N 01:10:57 18° NNW 01:10:57 18° NNW visible
